SUZAKU (ASTRO-EII) (28773 NORAD) Tracking and Keplerian Element Data

This shows tracking and keplerian element data for the satellite.

Feedback or suggestion? Click here.




ElementValue
Catalog28773
NameSUZAKU (ASTRO-EII)
Epoch Orbit6527
Epoch Day286.71441951
Epoch Year2024
RAAN53.3922
Inclination31.3838
Eccentricity0.0005025
Argument of Perigee79.3519
Mean Anonmoly280.7706
Mean Motion15.62831226
Decay Rate0.00128958
L11 28773U 05025A 24286.71441951 .00128958 00000+0 13545-2 0 9995
L22 28773 31.3838 53.3922 0005025 79.3519 280.7706 15.62831226 65271



Live tracking and technical data element details for SUZAKU (ASTRO-EII) (NORAD 28773). SUZAKU (ASTRO-EII) can be tracked NOW for your location showing map with azimuth and elevation plus other details from your city location.







IsCatalogInMostPopularTable: catalog: 28773, numindb: 411
Update: records affected: 1



GetName: 28773 SUZAKU (ASTRO-EII)

Hit Count: updated at: Thu, 15 May 2025 09:20:56 GMT